Location: Baumgarten
(49.0970°N, 12.7493°E)
Time: 18:50:34
(UTC+00:00)

Cosmos 1151 Rocket - Pass Details

Date: 05 July 2020
Orbit: 591 x 617 km, 82.5° (Epoch: 11 August)

Event Time Altitude Azimuth Distance (km) Brightness Sun altitude
Rises 23:32:33 0° 340° (NNW) 2,881 7.7 -18.1°
Reaches altitude 10° 23:35:02 10° 328° (NNW) 1,967 6.4 -18.1°
Maximum altitude 23:38:39 26° 272° (W) 1,190 4.4 -18.0°
Enters shadow 23:40:04 22° 241° (WSW) 1,332 4.4 -18.0°
